Погода в Гяндже

Погода в Гяндже : погода сейчас, прогноз погоды и архив. Всё, что Вы хотите узнать о погоде в Гяндже!

Поиск расширенной информации на нашем сайте:

Полезная информация: Карточки 16906 сайт автокранов.

Другие новости

Новости СМИ2

Главная страница сайта

Новости сайта

02.10.2013

Напоминаем, что на нашем новом сайте вы можете получить высокодетализированные прогнозы погоды по пунктам России, СНГ и мира (включающие важные для авиации метеовеличины, такие как направление и скорость ветра, видимость, явления погоды, количество и форма облачности, нижняя и верхняя граница облачности), а также ознакомиться с разнообразными материалами по авиационной метеорологии и подборкой полезных ссылок на эту тему.

Сайт Метеоцентр.Азия посвящён разработке технологий оптимизации авиаметеорологического обслуживания, включая проектирование и перспективное создание нескольких автоматизированных авиаметеорологических систем:
- система выпуска высокодетальных прогностических карт явлений погоды для нижнего воздушного пространства по России и ближнему зарубежью;
- система верификации прогнозов TAF (выпускаемых синоптиками официальных АМСГ РФ и ближнего зарубежья) и AUTOTAF (выпускаемых сайтом Метеоцентр.Азия) - выявление ошибок, онлайн-сопоставление с фактической погодой METAR, автоматическое внесение коррективов в прогнозы при резком отклонении фактической погоды от прогноза, подсчёт оправдываемости прогнозов по элементам и в целом;
- система обработки, анализа и отображения авиаметеорологической информации для применения провайдерами метеорологической информации.

Рекомендуем: Высказывания Мастеров восточных единоборств.

Погода в Гяндже - сегодня

Время (UTC), дата Ветер
(°,м/с) 
Видим.   Явления Облачность Т
(°С)
Тd
(°С)
f(%) Тe
(°С)
Pmin
(гПа)
dP
(гПа)
Po
(мм)
O2
(г/м3)
Тmin Tmax R s Состояние
почвы
09 24.06.17 320 (СЗ) 20000 м    1/1 1000 м 
[Cu hum]
+27.2 +8.8 31 +27  1013.9  -3.5  733  267           
12 24.06.17 320 (СЗ) 20000 м    1/1 1000 м 
[Cu hum]
+28.8 +11 33 +32  1011.5  -2.4  732  265           
15 24.06.17 320 (СЗ) 20000 м    1/1 1000 м 
[Cu hum]
+29.6 +6.7 24 +30  1009.7  -1.8  731  265           
18 24.06.17 270 (З) 10 км    ясно 
+22.5 +20.6 89 +44  1009.8  0.1  731  267    +29.9       
21 24.06.17 270 (З) 10 км    ясно 
+23.6 +17.8 70 +38  1010.2  0.4  731  267           
00 25.06.17 270 (З) 10 км    ясно 
+19.7 +16.9 84 +34  1010.9  0.7  732  271           
03 25.06.17 тихо ()   20000 м    ясно 
+21 +16.5 75 +33  1011.5  0.6  732  270           
06 25.06.17 320 (СЗ) 10 км    3/3 1000 м 
[Cu med, cong]
+27.3 +8.6 31 +27  1011.8  0.3  732  267           
09 25.06.17 320 (СЗ) 10 км    3/3 1000 м 
[Cu med, cong]
+30.5 +10.6 29 +33  1011.2  -0.6  732  263           
12 25.06.17 320 (СЗ) 10 км    3/3 1000 м 
[Cu med, cong]
+33.3 +8.6 22 +33  1009.6  -1.6  731  261           
15 25.06.17 320 (СЗ) 10 км    3/3 1000 м кучево-дожд., верхняя 
[Cb calv|Ci fib]
+32.1 +11.8 29 +36  1008.7  -0.9  731  261           
18 25.06.17 320 (СЗ) 10 км    3/0 верхняя 
[Ci fib]
+26.5 +12.4 42 +32  1010.4  1.7  733  267    +33.5       
21 25.06.17 270 (З) 10 км    6/6 1000 м 
[Cu hum]
+24.7 +12.6 47 +30  1012.9  2.5  734  269           
00 26.06.17 тихо ()   10 км    ясно 
+20.4 +14.6 69 +29  1015.2  2.3  735  272           
03 26.06.17 тихо ()   20000 м    ясно 
+22.5 +15.3 64 +32  1016.4  1.2  736  271           
06 26.06.17 110 (В) 20000 м    5/5 1000 м 
[Cu med, cong]
+25.9 +16.7 57 +38  1017.2  0.8  736  267           
09 26.06.17 160 (Ю) 12-18  20000 м    8/8 1000 м 
[Cu med, cong]
+27.7 +15.1 46 +37  1015.8  -1.4  735  266           
12 26.06.17 160 (Ю) 10  20000 м    5/5 1000 м 
[Cu med, cong]
+29.7 +16 44 +41  1015  -0.8  735  264           
15 26.06.17 070 (В) 20000 м    3/3 1000 м 
[Cu med, cong]
+29.1 +15.9 45 +40  1014.2  -0.8  735  264           
18 26.06.17 140 (ЮВ) 20000 м    ясно 
+25.3 +15.4 54 +35  1014.9  0.7  735  268    +30       
21 26.06.17 140 (ЮВ) 20000 м    3/3 1000 м 
[Cu hum]
+22.1 +16 68 +33  1015.9  736  271           
00 27.06.17 140 (ЮВ) 20000 м    ясно 
+19.3 +15.8 80 +32  1015.8  -0.1  735  273           
03 27.06.17 320 (СЗ) 10 км    ясно 
+19.7 +16.5 82 +33  1016.6  0.8  735  273           
06 27.06.17 110 (В) 20000 м    4/0 средняя 
[Ac trans]
+23.5 +17.7 70 +38  1016.5  -0.1  735  269           
09 27.06.17 160 (Ю) 20000 м    3/3 1000 м 
[Cu hum]
+28.1 +17.9 54 +43  1015  -1.5  734  264           
Время (UTC), дата Ветер
(°,м/с) 
Видим.   Явления Облачность Т
(°С)
Тd
(°С)
f(%) Тe
(°С)
Pmin
(гПа)
dP
(гПа)
Po
(мм)
O2
(г/м3)
Тmin Tmax R s Состояние
почвы

Для получения пояснительной информации подведите курсор к названию столбца.

ПОГОДА в Гяндже - архив

Всё, что Вы хотите узнать о погоде в Гяндже - удобно и подробно!

Выберите нужную дату (начиная с 1 января 2015* года) и нажмите кнопку "Найти".
Будут отображены архивные сводки погоды по пункту Гянджа, начиная с указанной даты.


Отображать данные в формате CSV (для использования в таблицах Excel)


Внимание! Наш архив погоды предназначен исключительно для личного некоммерческого использования в познавательных целях. Если Вам необходимы официальные справки о состоянии погоды (для производственных, юридических, коммерческих и т.п. целей), обращайтесь в органы Росгидромета.

*Примечание: данная дата относится к архиву по метеостанциям СССР (Россия, СНГ, Балтия).
Архив по метеостанциям Зарубежной Европы и Азии (кроме Китая) хранится 10 дней, по другим регионам земного шара (Китай, Африка, Америка, Австралия, Океания) - 1 день.

Гянджа - район местоположения метеостанции


Название, широта, долгота, высота метеостанции:
Гянджа (город) 40.7°ш. 46.4°д. 311 м над ур. моря [Азербайджан]

Дополнительная информация

В oтличие oт бoльшинства пoгoдных сайтoв мы публикуем пoдрoбную метеoинфoрмацию в детальнoм прoфессиoнальнoм фoрмате.

Характеристики температуры и влажнoсти вoздуха измеряются на высoте 2 м в тени вдали oт зданий и деревьев.
Скoрoсть ветра измеряется на высoте 10 м (на урoвне рoста челoвека скoрoсть ветра ниже в 1.5-2 раза). Если метеoстанция нахoдится в гoрoде или в лесу, тo скoрoсть ветра занижена на 2-4 м/с пo сравнению с oткрытым местoм. Скoрoсть ветра над акватoриями крупных рек и oзёр, а также на вершинах хoлмoв на 2-5 м/с выше, чем в oбычных услoвиях.
Атмoсфернoе давление в разных тoчках местнoсти мoжет значительнo oтличаться oт давления на метеoстанции, в зависимoсти oт услoвий рельефа (при пoдъёме на 10 м давление пoнижается примернo на 1 мм рт.ст.).